Miscellaneous Local Product
Issued by NWS Hastings, NE

Home | Current Version | Previous Version | Text Only | Print | Product List | Glossary On
Versions: 1 2 3 4 5 6 7 8 9 10 11 12 13 14 15 16 17 18 19 20 21 22 23 24 25 26 27 28 29 30 31 32 33 34 35 36 37 38 39 40 41 42 43 44 45 46 47 48 49 50
000
AXUS43 KGID 272302
MISGRI

GID CWA HOURLY WEATHER ROUNDUP
NATIONAL WEATHER SERVICE HASTINGS NE
600 PM CDT SAT MAY 27 2017

NOTE: "FAIR" INDICATES FEW OR NO CLOUDS BELOW 12,000 FEET WITH NO
SIGNIFICANT WEATHER AND/OR OBSTRUCTIONS TO VISIBILITY.

...SOUTH CENTRAL NEBRASKA...

CITY           SKY/WX    TMP DP  RH WIND       PRES   REMARKS
GRAND ISLAND   CLOUDY    70  54  56 N20G25    29.95R
HASTINGS       CLOUDY    71  50  47 N17       29.94R
KEARNEY        CLOUDY    66  52  59 N17       29.97R
ORD            PTSUNNY   63  49  60 NW13      29.96F
YORK           CLOUDY    73  48  40 N14G22    29.91R
AURORA         CLOUDY    73  47  40 N18       29.93R
LEXINGTON      CLOUDY    65  53  65 N12       30.00R
HOLDREGE       PTSUNNY   67  53  59 N20       29.97R
HEBRON         PTSUNNY   76  53  44 N12G17    29.89R

...NEBRASKA PANHANDLE...

CITY           SKY/WX    TMP DP  RH WIND       PRES   REMARKS
CHADRON        SUNNY     61  44  53 SE8       30.05F
ALLIANCE       SUNNY     62  42  47 W9        30.08S
SCOTTSBLUFF    CLOUDY    65  41  41 W9        30.10R
SIDNEY         CLOUDY    58  45  62 N18G24    30.12R

...WESTERN AND NORTH CENTRAL NEBRASKA...

CITY           SKY/WX    TMP DP  RH WIND       PRES   REMARKS
VALENTINE      SUNNY     67  42  40 SW5       29.98S
AINSWORTH      CLOUDY    65  47  53 NW5       29.99R
ONEILL         LGT RAIN  59  52  77 NW7       29.97F
BROKEN BOW     CLOUDY    63  51  65 N14       30.00R
IMPERIAL       PTSUNNY   62  50  64 N5        30.06R
NORTH PLATTE   CLOUDY    61  52  72 N7        30.03R
MCCOOK         CLOUDY    68  49  50 N10       30.00R

...EASTERN NEBRASKA...

CITY           SKY/WX    TMP DP  RH WIND       PRES   REMARKS
NORFOLK        CLOUDY    68  50  52 NW14      29.92R
SO SIOUX CITY  PTSUNNY   71  53  52 N6        29.91R
TEKAMAH        CLOUDY    73  47  39 E7        29.88R
ALBION         CLOUDY    66  53  61 N10G18    29.96R
OMAHA EPPLEY   MOSUNNY   71  55  56 NE8       29.89S
OFFUTT AFB     SUNNY     71  56  58 NE7       29.89R
MILLARD        MOSUNNY   72  58  62 E6        29.89S
LINCOLN        MOSUNNY   75  53  46 NE12      29.88S
NEBRASKA CITY  CLOUDY    71  56  60 N13       29.88S
BEATRICE       CLOUDY    73  60  63 NE9       29.88S
FALLS CITY     PTSUNNY   70  61  73 N7        29.86R

...NORTHERN KANSAS...

CITY           SKY/WX    TMP DP  RH WIND       PRES   REMARKS
GOODLAND       LGT RAIN  61  49  64 N20G26    30.08R
HILL CITY      CLOUDY    70  56  61 N17G23    29.97R
NORTON         PTCLDY    68  50  52 N14       29.98R
PHILLIPSBURG   CLOUDY    73  54  49 N12G17    29.94R
SMITH CENTER   CLOUDY    72  52  49 N10       29.92R
HAYS           MOSUNNY   74  59  59 N13G21    29.92R
RUSSELL        PTSUNNY   73  58  59 N13       29.89R
CONCORDIA      CLOUDY    72  60  66 N14       29.88R
SALINA         CLOUDY    76  62  62 N14       29.86R
TOPEKA         CLOUDY    77  65  66 N10       29.82S



USA.gov is the U.S. government's official web portal to all federal, state and local government web resources and services.